DW9210 Weather Reports


time (UTC)temp
C
wind
direction
speed
KPH
gust
KPH
rain 1hr
cm
rain 24hr
cm
rain mn
cm
humidity
%
barometer
mb
20260508135524 16 217 6.4 12.9 0.00 0.00 0.00 54 1015.8
20260508135024 16 224 4.8 12.9 0.00 0.00 0.00 53 1015.8
20260508134503 15 243 3.2 9.7 0.00 0.00 0.00 62 1015.8
20260508134003 15 246 3.2 9.7 0.00 0.00 0.00 59 1015.9
20260508133503 15 234 4.8 9.7 0.00 0.00 0.00 55 1015.8
20260508133024 15 217 4.8 12.9 0.00 0.00 0.00 60 1015.9
20260508132503 14 212 3.2 12.9 0.00 0.00 0.00 60 1015.9
20260508132003 13 208 4.8 12.9 0.00 0.00 0.00 63 1015.8
20260508131503 13 209 4.8 12.9 0.00 0.00 0.00 63 1015.8
20260508131024 13 208 3.2 9.7 0.00 0.00 0.00 64 1015.8
20260508130503 12 205 3.2 11.3 0.00 0.00 0.00 69 1015.8
20260508130024 12 196 3.2 11.3 0.00 0.00 0.00 72 1015.8
20260508125503 11 192 1.6 8.0 0.00 0.00 0.00 73 1015.8
20260508125003 11 201 1.6 8.0 0.00 0.00 0.00 74 1015.8
20260508124503 10 199 1.6 4.8 0.00 0.00 0.00 76 1015.8
20260508124003 10 206 1.6 8.0 0.00 0.00 0.00 77 1015.8
20260508123503 10 207 3.2 9.7 0.00 0.00 0.00 79 1015.8
20260508123003 9 197 3.2 9.7 0.00 0.00 0.00 80 1015.8
20260508122503 8 192 1.6 8.0 0.00 0.00 0.00 84 1015.8
20260508122003 8 202 1.6 6.4 0.00 0.00 0.00 87 1015.7
20260508121503 7 192 1.6 6.4 0.00 0.00 0.00 90 1015.7
20260508121003 7 172 1.6 6.4 0.00 0.00 0.00 95 1015.7
20260508120503 7 170 1.6 3.2 0.00 0.00 0.00 97 1015.7
20260508120024 6 180 1.6 3.2 0.00 0.00 0.00 97 1015.7
20260508115503 5 179 0.0 3.2 0.00 0.00 0.00 97 1015.7
20260508115003 5 170 0.0 1.6 0.00 0.00 0.00 97 1015.7
20260508114503 4 180 0.0 1.6 0.00 0.00 0.00 97 1015.6
20260508114003 3 182 0.0 1.6 0.00 0.00 0.00 97 1015.6
20260508113503 3 0 0.0 0.0 0.00 0.00 0.00 96 1015.5
20260508113004 2 0 0.0 0.0 0.00 0.00 0.00 96 1015.5
20260508112503 2 0 0.0 0.0 0.00 0.00 0.00 96 1015.4
20260508112003 2 0 0.0 0.0 0.00 0.00 0.00 96 1015.4
20260508111503 2 0 0.0 0.0 0.00 0.00 0.00 96 1015.3
20260508111003 2 0 0.0 0.0 0.00 0.00 0.00 95 1015.3
20260508110503 1 0 0.0 0.0 0.00 0.00 0.00 95 1015.3
20260508110003 1 0 0.0 0.0 0.00 0.00 0.00 95 1015.3
20260508105503 1 0 0.0 0.0 0.00 0.00 0.00 95 1015.2
20260508105003 1 0 0.0 0.0 0.00 0.00 0.00 95 1015.1
20260508104524 2 0 0.0 0.0 0.00 0.00 0.00 95 1015.0
20260508104003 2 0 0.0 0.0 0.00 0.00 0.00 95 1015.0
20260508103524 2 0 0.0 0.0 0.00 0.00 0.00 95 1015.1
20260508103003 2 0 0.0 0.0 0.00 0.00 0.00 95 1015.0
20260508102503 2 0 0.0 0.0 0.00 0.00 0.00 95 1015.0
20260508102003 2 0 0.0 0.0 0.00 0.00 0.00 95 1015.1
20260508101503 2 0 0.0 0.0 0.00 0.00 0.00 95 1015.0
20260508101003 2 0 0.0 0.0 0.00 0.00 0.00 95 1015.0
20260508100503 2 167 0.0 1.6 0.00 0.00 0.00 95 1015.0
20260508100003 2 167 0.0 1.6 0.00 0.00 0.00 95 1014.9
20260508095503 1 167 0.0 1.6 0.00 0.00 0.00 95 1015.0
20260508095003 2 167 0.0 1.6 0.00 0.00 0.00 95 1014.9
20260508094503 2 0 0.0 0.0 0.00 0.00 0.00 95 1014.9
20260508094003 2 0 0.0 0.0 0.00 0.00 0.00 95 1014.9
20260508093524 2 0 0.0 0.0 0.00 0.00 0.00 95 1015.0
20260508093003 2 0 0.0 0.0 0.00 0.00 0.00 95 1014.9
20260508092503 2 0 0.0 0.0 0.00 0.00 0.00 95 1015.0
20260508092024 2 0 0.0 0.0 0.00 0.00 0.00 95 1014.9
20260508091503 2 0 0.0 0.0 0.00 0.00 0.00 94 1014.9
20260508091003 2 162 0.0 1.6 0.00 0.00 0.00 95 1014.9
20260508090503 2 159 0.0 1.6 0.00 0.00 0.00 95 1014.8
20260508090003 2 155 0.0 1.6 0.00 0.00 0.00 95 1014.7
20260508085524 2 155 0.0 1.6 0.00 0.00 0.00 94 1014.8
20260508085003 2 155 0.0 1.6 0.00 0.00 0.00 94 1014.8
20260508084524 2 155 0.0 1.6 0.00 0.00 0.00 94 1014.8
20260508084003 2 155 0.0 1.6 0.00 0.00 0.00 95 1014.9
20260508083503 2 155 0.0 1.6 0.00 0.00 0.00 94 1014.9
20260508083003 2 0 0.0 0.0 0.00 0.00 0.00 94 1014.7
20260508082503 2 155 0.0 1.6 0.00 0.00 0.00 95 1014.8
20260508082003 2 157 0.0 3.2 0.00 0.00 0.00 95 1014.8
20260508081503 2 174 1.6 3.2 0.00 0.00 0.00 95 1014.8
20260508081003 2 199 0.0 3.2 0.00 0.00 0.00 95 1014.8
20260508080503 2 0 0.0 0.0 0.00 0.00 0.00 94 1014.8
20260508080003 2 0 0.0 0.0 0.00 0.00 0.00 94 1014.9
20260508075524 2 0 0.0 0.0 0.00 0.00 0.00 94 1014.9
20260508075003 2 0 0.0 0.0 0.00 0.00 0.00 94 1014.8
20260508074524 2 0 0.0 0.0 0.00 0.00 0.00 94 1014.8
20260508074003 2 284 0.0 1.6 0.00 0.00 0.00 94 1014.8
20260508073503 2 283 0.0 1.6 0.00 0.00 0.00 94 1014.8
20260508073003 2 283 0.0 1.6 0.00 0.00 0.00 94 1014.8
20260508072503 2 0 0.0 0.0 0.00 0.00 0.00 94 1014.8
20260508072024 2 282 0.0 1.6 0.00 0.00 0.00 94 1014.8
20260508071503 2 284 0.0 1.6 0.00 0.00 0.00 94 1014.8
20260508071003 2 285 0.0 1.6 0.00 0.00 0.00 94 1014.9
20260508070503 2 0 0.0 0.0 0.00 0.00 0.00 94 1014.8
20260508070003 2 0 0.0 0.0 0.00 0.00 0.00 94 1014.8
20260508065524 2 0 0.0 0.0 0.00 0.00 0.00 94 1014.8
20260508065024 3 289 0.0 1.6 0.00 0.00 0.00 94 1014.8
20260508064524 3 284 0.0 1.6 0.00 0.00 0.00 94 1014.9
20260508064003 2 283 0.0 1.6 0.00 0.00 0.00 94 1014.9
20260508063524 2 0 0.0 0.0 0.00 0.00 0.00 94 1014.9
20260508063003 3 0 0.0 0.0 0.00 0.00 0.00 93 1014.9
20260508062503 3 0 0.0 0.0 0.00 0.00 0.00 94 1014.9
20260508062003 3 0 0.0 0.0 0.00 0.00 0.00 94 1014.9
20260508061503 3 0 0.0 0.0 0.00 0.00 0.00 94 1014.9
20260508061003 3 0 0.0 0.0 0.00 0.00 0.00 93 1015.0
20260508060524 3 0 0.0 0.0 0.00 0.00 0.00 93 1015.1
20260508060003 3 0 0.0 0.0 0.00 0.00 0.00 93 1015.2
20260508055503 3 0 0.0 0.0 0.00 0.00 0.00 93 1015.1
20260508055003 3 0 0.0 0.0 0.00 0.00 0.00 93 1015.2
20260508054503 3 0 0.0 0.0 0.00 0.00 0.00 93 1015.2
20260508054003 3 283 0.0 1.6 0.00 0.00 0.00 93 1015.2
20260508053503 3 283 0.0 1.6 0.00 0.00 0.00 92 1015.3
20260508053024 3 283 0.0 1.6 0.00 0.00 0.00 93 1015.2
20260508052503 3 283 0.0 1.6 0.00 0.00 0.00 93 1015.2
20260508052003 3 284 0.0 1.6 0.00 0.00 0.00 93 1015.2
20260508051503 3 0 0.0 0.0 0.00 0.00 0.00 93 1015.3
20260508051003 3 0 0.0 0.0 0.00 0.00 0.00 92 1015.2
20260508050503 3 283 0.0 1.6 0.00 0.00 0.00 93 1015.1
20260508050003 4 283 0.0 1.6 0.00 0.00 0.00 93 1015.1
20260508045503 4 283 0.0 1.6 0.00 0.00 0.00 93 1015.1
20260508045024 4 0 0.0 0.0 0.00 0.00 0.00 92 1015.1
20260508044503 4 0 0.0 0.0 0.00 0.00 0.00 92 1015.0
20260508044003 4 0 0.0 0.0 0.00 0.00 0.00 92 1015.0
20260508043503 4 0 0.0 0.0 0.00 0.00 0.00 92 1015.0
20260508043003 4 0 0.0 0.0 0.00 0.00 0.00 92 1014.9
20260508042524 4 0 0.0 0.0 0.00 0.00 0.00 92 1015.0
20260508042003 4 0 0.0 0.0 0.00 0.00 0.00 91 1015.1
20260508041503 4 0 0.0 0.0 0.00 0.00 0.00 91 1015.0
20260508041003 4 0 0.0 0.0 0.00 0.00 0.00 91 1015.1
20260508040503 4 0 0.0 0.0 0.00 0.00 0.00 90 1015.0
20260508040003 5 283 0.0 1.6 0.00 0.00 0.00 91 1015.1
20260508035503 5 283 0.0 1.6 0.00 0.00 0.00 90 1015.0
20260508035003 5 0 0.0 0.0 0.00 0.00 0.00 90 1015.0
20260508034503 5 0 0.0 0.0 0.00 0.00 0.00 90 1015.0
20260508034003 5 0 0.0 0.0 0.00 0.00 0.00 91 1015.1
20260508033503 5 0 0.0 0.0 0.00 0.00 0.00 91 1015.1
20260508033003 5 0 0.0 0.0 0.00 0.00 0.00 90 1015.1
20260508032503 5 0 0.0 0.0 0.00 0.00 0.00 90 1015.2
20260508032003 5 0 0.0 0.0 0.00 0.00 0.00 89 1015.2
20260508031503 5 0 0.0 0.0 0.00 0.00 0.00 88 1015.2
20260508031003 5 0 0.0 0.0 0.00 0.00 0.00 88 1015.2
20260508030503 5 0 0.0 0.0 0.00 0.00 0.00 88 1015.2
20260508030003 6 0 0.0 0.0 0.00 0.00 0.00 87 1015.2
20260508025503 6 0 0.0 0.0 0.00 0.00 0.00 86 1015.2
20260508025003 6 0 0.0 0.0 0.00 0.00 0.00 87 1015.2
20260508024503 6 0 0.0 0.0 0.00 0.00 0.00 86 1015.2
20260508024003 6 0 0.0 0.0 0.00 0.00 0.00 86 1015.1
20260508023503 6 283 0.0 1.6 0.00 0.00 0.00 85 1015.1
20260508023003 6 283 0.0 1.6 0.00 0.00 0.00 85 1015.1
20260508022524 6 0 0.0 0.0 0.00 0.00 0.00 84 1015.0
20260508022003 7 0 0.0 0.0 0.00 0.00 0.00 83 1015.0
20260508021524 7 0 0.0 0.0 0.00 0.00 0.00 82 1014.9
20260508021024 7 282 0.0 3.2 0.00 0.00 0.00 80 1014.9
20260508020524 7 286 0.0 3.2 0.00 0.00 0.00 79 1014.9
20260508020003 7 291 1.6 3.2 0.00 0.00 0.00 80 1014.8
20260508015503 8 297 0.0 1.6 0.00 0.00 0.00 77 1014.7
20260508015003 8 0 0.0 0.0 0.00 0.00 0.00 77 1014.6
20260508014503 8 0 0.0 0.0 0.00 0.00 0.00 76 1014.5
20260508014003 8 0 0.0 0.0 0.00 0.00 0.00 75 1014.5
20260508013503 8 297 0.0 1.6 0.00 0.00 0.00 72 1014.3
20260508013003 9 297 0.0 1.6 0.00 0.00 0.00 72 1014.3
20260508012524 9 305 0.0 1.6 0.00 0.00 0.00 71 1014.3
20260508012003 9 305 0.0 1.6 0.00 0.00 0.00 69 1014.3
20260508011503 10 0 0.0 0.0 0.00 0.00 0.00 68 1014.2
20260508011003 10 0 0.0 0.0 0.00 0.00 0.00 67 1014.2
20260508010503 10 0 0.0 0.0 0.00 0.00 0.00 65 1014.1
20260508010024 11 0 0.0 0.0 0.00 0.00 0.00 69 1014.0
20260508005524 11 0 0.0 0.0 0.00 0.00 0.00 67 1013.9
20260508005003 11 296 0.0 1.6 0.00 0.00 0.00 66 1013.9
20260508004503 11 296 0.0 1.6 0.00 0.00 0.00 65 1013.9
20260508004003 12 299 0.0 3.2 0.00 0.00 0.00 61 1013.9
20260508003503 12 298 1.6 3.2 0.00 0.00 0.00 60 1013.8
20260508003003 12 300 3.2 3.2 0.00 0.00 0.00 59 1013.7
20260508002503 13 302 3.2 3.2 0.00 0.00 0.00 56 1013.6
20260508002003 13 303 3.2 3.2 0.00 0.00 0.00 53 1013.6
20260508001503 13 304 1.6 3.2 0.00 0.00 0.00 50 1013.5
20260508001003 13 307 3.2 4.8 0.00 0.00 0.00 50 1013.5
20260508000503 13 306 3.2 4.8 0.00 0.00 0.00 49 1013.5
20260508000003 13 301 3.2 6.4 0.00 0.00 0.00 49 1013.5
20260507235503 13 299 3.2 6.4 0.00 0.00 0.00 48 1013.5
20260507235003 13 297 3.2 8.0 0.00 0.00 0.00 48 1013.4
20260507234503 14 295 4.8 8.0 0.00 0.00 0.00 48 1013.5
20260507234003 14 295 4.8 8.0 0.00 0.00 0.00 47 1013.4
20260507233503 15 299 4.8 8.0 0.00 0.00 0.00 47 1013.3
20260507233003 15 301 3.2 6.4 0.00 0.00 0.00 45 1013.3
20260507232503 15 292 3.2 6.4 0.00 0.00 0.00 46 1013.3
20260507232024 15 283 4.8 8.0 0.00 0.00 0.00 43 1013.3
20260507231503 15 283 6.4 11.3 0.00 0.00 0.00 42 1013.4
20260507231024 15 287 6.4 11.3 0.00 0.00 0.00 44 1013.4
20260507230503 16 295 6.4 9.7 0.00 0.00 0.00 44 1013.4
20260507230003 16 296 6.4 11.3 0.00 0.00 0.00 43 1013.4
20260507225503 16 296 4.8 11.3 0.00 0.00 0.00 44 1013.4
20260507225003 16 301 4.8 9.7 0.00 0.00 0.00 42 1013.3
20260507224524 17 308 4.8 9.7 0.00 0.00 0.00 42 1013.3
20260507224003 16 331 3.2 9.7 0.00 0.00 0.00 42 1013.2
20260507223503 16 315 4.8 9.7 0.00 0.00 0.00 43 1013.2
20260507223003 16 296 4.8 9.7 0.00 0.00 0.00 44 1013.2
20260507222503 17 292 4.8 11.3 0.00 0.00 0.00 43 1013.3
20260507222024 17 288 4.8 11.3 0.00 0.00 0.00 42 1013.3
20260507221503 17 285 6.4 12.9 0.00 0.00 0.00 44 1013.3
20260507221003 17 294 6.4 12.9 0.00 0.00 0.00 42 1013.5
20260507220524 17 295 4.8 11.3 0.00 0.00 0.00 39 1013.4
20260507220003 17 288 6.4 16.1 0.00 0.00 0.00 43 1013.4
20260507215503 17 286 6.4 16.1 0.00 0.00 0.00 41 1013.4
20260507215003 17 278 8.0 12.9 0.00 0.00 0.00 44 1013.4
20260507214503 17 292 6.4 12.9 0.00 0.00 0.00 40 1013.4
20260507214003 17 303 6.4 12.9 0.00 0.00 0.00 44 1013.2
20260507213503 17 291 6.4 12.9 0.00 0.00 0.00 45 1013.2
20260507213003 17 302 4.8 9.7 0.00 0.00 0.00 36 1013.2
20260507212524 17 312 4.8 11.3 0.00 0.00 0.00 44 1013.1
20260507212003 17 314 6.4 14.5 0.00 0.00 0.00 44 1013.0
20260507211524 17 308 8.0 17.7 0.00 0.00 0.00 45 1013.1
20260507211024 17 296 6.4 17.7 0.00 0.00 0.00 40 1013.0
20260507210524 17 317 4.8 11.3 0.00 0.00 0.00 41 1013.1
20260507210003 17 307 6.4 16.1 0.00 0.00 0.00 43 1013.1
20260507205503 17 292 6.4 16.1 0.00 0.00 0.00 41 1013.0
20260507205003 17 289 8.0 16.1 0.00 0.00 0.00 39 1013.0
20260507204503 17 282 8.0 12.9 0.00 0.00 0.00 44 1013.1
20260507204003 17 282 8.0 17.7 0.00 0.00 0.00 44 1013.1
20260507203524 17 282 8.0 17.7 0.00 0.00 0.00 44 1013.1
20260507203003 17 283 8.0 14.5 0.00 0.00 0.00 40 1013.0
20260507202503 17 306 6.4 12.9 0.00 0.00 0.00 47 1013.0
20260507202003 17 310 8.0 16.1 0.00 0.00 0.00 37 1013.0
20260507201503 17 284 8.0 20.9 0.00 0.00 0.00 44 1013.0
20260507201003 17 268 6.4 20.9 0.00 0.00 0.00 43 1013.1
20260507200524 17 283 6.4 14.5 0.00 0.00 0.00 46 1013.2
20260507200003 17 304 8.0 12.9 0.00 0.00 0.00 44 1013.2
20260507195503 17 309 6.4 12.9 0.00 0.00 0.00 43 1013.2
20260507195003 17 336 4.8 12.9 0.00 0.00 0.00 48 1013.2
20260507194503 16 3 4.8 12.9 0.00 0.00 0.00 41 1013.1
20260507194003 16 320 6.4 14.5 0.00 0.00 0.00 44 1013.3
20260507193524 17 291 8.0 14.5 0.00 0.00 0.00 43 1013.3
20260507193003 17 298 6.4 19.3 0.00 0.00 0.00 50 1013.2
20260507192503 17 318 6.4 19.3 0.00 0.00 0.00 48 1013.2
20260507192003 16 326 4.8 14.5 0.00 0.00 0.00 45 1013.3
20260507191503 16 284 4.8 12.9 0.00 0.00 0.00 42 1013.2
20260507191003 16 284 6.4 14.5 0.00 0.00 0.00 43 1013.4
20260507190503 17 281 8.0 14.5 0.00 0.00 0.00 47 1013.5
20260507190004 17 281 9.7 19.3 0.00 0.00 0.00 43 1013.5
20260507185503 16 302 8.0 19.3 0.00 0.00 0.00 49 1013.6
20260507185003 16 316 6.4 14.5 0.00 0.00 0.00 49 1013.6
20260507184503 16 301 4.8 11.3 0.00 0.00 0.00 46 1013.6
20260507184003 16 299 6.4 20.9 0.00 0.00 0.00 47 1013.6
20260507183503 16 289 8.0 20.9 0.00 0.00 0.00 47 1013.5
20260507183024 16 298 8.0 16.1 0.00 0.00 0.00 52 1013.6
20260507182524 16 294 8.0 20.9 0.00 0.00 0.00 49 1013.6
20260507182003 16 286 8.0 20.9 0.00 0.00 0.00 50 1013.7
20260507181503 16 297 6.4 12.9 0.00 0.00 0.00 56 1013.7
20260507181003 16 294 6.4 11.3 0.00 0.00 0.00 50 1013.7
20260507180503 16 268 4.8 11.3 0.00 0.00 0.00 55 1013.7
20260507180003 15 256 6.4 14.5 0.00 0.00 0.00 42 1013.7
20260507175503 15 290 8.0 14.5 0.00 0.00 0.00 46 1013.8
20260507175003 16 310 8.0 16.1 0.00 0.00 0.00 46 1013.9
20260507174503 16 283 8.0 17.7 0.00 0.00 0.00 47 1013.7
20260507174003 15 264 6.4 17.7 0.00 0.00 0.00 54 1013.7
20260507173524 15 262 6.4 17.7 0.00 0.00 0.00 48 1014.0
20260507173004 15 256 8.0 19.3 0.00 0.00 0.00 48 1014.2
20260507172503 16 254 8.0 19.3 0.00 0.00 0.00 51 1014.2
20260507172003 15 269 8.0 17.7 0.00 0.00 0.00 45 1014.3
20260507171503 16 280 8.0 14.5 0.00 0.00 0.00 56 1014.4
20260507171003 15 277 6.4 14.5 0.00 0.00 0.00 56 1014.5
20260507170524 15 272 6.4 16.1 0.00 0.00 0.00 53 1014.5
20260507170024 15 285 8.0 17.7 0.00 0.00 0.00 56 1014.7
20260507165503 15 306 8.0 17.7 0.00 0.00 0.00 55 1014.8
20260507165003 15 333 6.4 14.5 0.00 0.00 0.00 52 1014.7
20260507164503 15 304 8.0 17.7 0.00 0.00 0.00 53 1014.8
20260507164003 15 286 6.4 17.7 0.00 0.00 0.00 53 1014.7
20260507163524 15 288 6.4 16.1 0.00 0.00 0.00 60 1014.6
20260507163003 15 279 6.4 17.7 0.00 0.00 0.00 51 1014.7
20260507162503 15 272 6.4 17.7 0.00 0.00 0.00 54 1014.7
20260507162024 15 277 6.4 16.1 0.00 0.00 0.00 54 1014.8
20260507161503 15 296 8.0 16.1 0.00 0.00 0.00 56 1014.9
20260507161024 15 290 9.7 16.1 0.00 0.00 0.00 50 1014.8
20260507160503 15 289 8.0 16.1 0.00 0.00 0.00 51 1014.9
20260507160003 15 296 6.4 12.9 0.00 0.00 0.00 56 1014.8
20260507155524 15 289 6.4 12.9 0.00 0.00 0.00 59 1014.9
20260507155003 15 283 8.0 12.9 0.00 0.00 0.00 58 1014.9
20260507154503 14 290 6.4 12.9 0.00 0.00 0.00 59 1015.0
20260507154003 15 299 8.0 16.1 0.00 0.00 0.00 53 1014.9
20260507153504 15 292 8.0 16.1 0.00 0.00 0.00 58 1014.9
20260507153003 14 284 6.4 14.5 0.00 0.00 0.00 51 1014.8
20260507152503 14 284 6.4 11.3 0.00 0.00 0.00 54 1014.8
20260507152003 14 286 4.8 11.3 0.00 0.00 0.00 60 1014.7
20260507151524 13 301 4.8 12.9 0.00 0.00 0.00 54 1014.6
20260507151003 13 339 6.4 14.5 0.00 0.00 0.00 50 1014.7
20260507150503 13 354 6.4 14.5 0.00 0.00 0.00 52 1014.7
20260507150003 13 328 6.4 11.3 0.00 0.00 0.00 52 1014.7
20260507145503 13 314 6.4 14.5 0.00 0.00 0.00 54 1014.7
20260507145003 13 351 4.8 14.5 0.00 0.00 0.00 54 1014.7
20260507144503 13 330 6.4 12.9 0.00 0.00 0.00 55 1014.7
20260507144024 13 298 6.4 12.9 0.00 0.00 0.00 54 1014.7
20260507143503 13 358 4.8 12.9 0.00 0.00 0.00 59 1014.6
20260507143003 13 358 6.4 12.9 0.00 0.00 0.00 59 1014.6
20260507142503 13 335 4.8 11.3 0.00 0.00 0.00 61 1014.7
20260507142003 12 330 6.4 12.9 0.00 0.00 0.00 58 1014.8
20260507141503 12 346 6.4 12.9 0.00 0.00 0.00 55 1014.7
20260507141003 12 25 6.4 11.3 0.00 0.00 0.00 59 1014.7
20260507140503 12 353 6.4 12.9 0.00 0.00 0.00 56 1014.8
20260507140003 12 338 6.4 12.9 0.00 0.00 0.00 59 1014.8